DW7355 Watertown MA US current weather conditions

sailwx.info

Wind from 245

Air temperature 0.6° C
Dewpoint -2.5° C

Last reported at 2019-Dec-13 14:02 UTC.
Time now 2019-Dec-13 14:31 UTC

Location: N 42°22' W 071°09'.
View on Google Maps.

See reports from other nearby stations

  
Tides and Currents Weather Stations Pressure Air Temp Water Temp Dewpoint Dewpoint Depression Visibility Wind Speed Wind Dir Waves Ship Positions
date/time (UTC)wind fromknots sea level pressurealtimeterstation pressurevisibilityair tempwater tempwave heightnotes
2019-Dec-13 14:02 245 0.6
2019-Dec-13 13:47 252 0.6
2019-Dec-13 13:31 160 -0.6
2019-Dec-13 13:16 263 -1.1
2019-Dec-13 13:01 262 -1.1
2019-Dec-13 12:46 242 -1.7
2019-Dec-13 12:30 270 -2.2
2019-Dec-13 12:16 239 -2.2
2019-Dec-13 12:01 316 -2.8
2019-Dec-13 11:45 289 -2.8
2019-Dec-13 11:30 239 -2.8
2019-Dec-13 11:16 245 -2.8
2019-Dec-13 11:00 273 -3.3
2019-Dec-13 10:45 272 -3.3
2019-Dec-13 10:31 247 -3.3
2019-Dec-13 10:15 248 -3.9
2019-Dec-13 10:00 248 -3.9
2019-Dec-13 09:45 248 -3.9
2019-Dec-13 09:31 248 -3.9
2019-Dec-13 09:16 279 -3.9
2019-Dec-13 09:01 280 -4.4
2019-Dec-13 08:48 251 -5.0
2019-Dec-13 08:32 252 -5.0
2019-Dec-13 08:17 141 -5.6
2019-Dec-13 08:02 141 -5.6
2019-Dec-13 07:47 270 -5.6
2019-Dec-13 07:32 269 -5.6
2019-Dec-13 07:02 270 -5.6
2019-Dec-13 06:47 270 -5.0
2019-Dec-13 06:31 270 -5.0
2019-Dec-13 06:16 270 -5.0
2019-Dec-13 06:01 270 -5.0
2019-Dec-13 05:45 270 -4.4
2019-Dec-13 05:30 270 -4.4
2019-Dec-13 05:01 270 -3.9
2019-Dec-13 04:45 233 -3.9
2019-Dec-13 04:31 233 -3.9
2019-Dec-13 04:15 238 -3.9
2019-Dec-13 04:00 293 -3.9
2019-Dec-13 03:45 272 -3.9
2019-Dec-13 03:30 271 -3.9
2019-Dec-13 03:15 271 -3.9
2019-Dec-13 03:00 271 -3.9
2019-Dec-13 02:46 271 -3.9
2019-Dec-13 02:30 271 -3.3
2019-Dec-13 02:15 271 -3.3
2019-Dec-13 02:00 278 -3.3
2019-Dec-13 01:45 248 -3.9
2019-Dec-13 01:30 248 -3.3
2019-Dec-13 01:15 233 -3.9
2019-Dec-13 01:00 233 -3.3
2019-Dec-13 00:45 233 -3.3
2019-Dec-13 00:30 233 -3.3
2019-Dec-13 00:15 233 -3.3
2019-Dec-13 00:01 233 -3.9
2019-Dec-12 23:45 233 -3.9
2019-Dec-12 23:30 233 -3.9
2019-Dec-12 23:15 233 -3.9
2019-Dec-12 23:01 233 -3.9
2019-Dec-12 22:45 233 -3.3
2019-Dec-12 22:30 360 -3.3
2019-Dec-12 22:15 360 -3.3
2019-Dec-12 22:00 359 -2.8
2019-Dec-12 21:45 001 -2.2
2019-Dec-12 21:30 012 -2.2
2019-Dec-12 21:15 332 -1.7
2019-Dec-12 21:00 356 -1.7
2019-Dec-12 20:45 012 0 gusting 3 -1.1
2019-Dec-12 20:30 006 0 gusting 5 -0.6
2019-Dec-12 20:15 326 -1.1
2019-Dec-12 20:02 012 0 gusting 5 -0.6
2019-Dec-12 20:00 006 0 gusting 5 -0.6
2019-Dec-12 19:47 029 1 gusting 6 -0.6
2019-Dec-12 19:32 351 -0.0
2019-Dec-12 19:17 027 0 gusting 4 -0.0
2019-Dec-12 19:01 034 0 gusting 6 -0.6
2019-Dec-12 18:47 011 0 gusting 5 -0.6
2019-Dec-12 18:31 068 0 gusting 4 -0.6
2019-Dec-12 18:18 347 -0.6
2019-Dec-12 18:02 008 2 gusting 7 -1.1
2019-Dec-12 17:46 354 3 gusting 8 -1.1
2019-Dec-12 17:31 068 1 gusting 4 -1.1
2019-Dec-12 17:18 018 1 gusting 6 -1.7
2019-Dec-12 17:02 107 3 gusting 7 -1.7
2019-Dec-12 16:47 022 1 gusting 6 -1.7
2019-Dec-12 16:31 035 2 gusting 6 -1.7
2019-Dec-12 16:17 020 1 gusting 6 -1.7
2019-Dec-12 16:02 319 1 gusting 7 -2.2
2019-Dec-12 15:47 108 0 gusting 6 -2.2
2019-Dec-12 15:31 034 1 gusting 6 -2.2
2019-Dec-12 15:16 351 -2.8
2019-Dec-12 15:02 044 3 gusting 6 -2.8
2019-Dec-12 14:47 001 3 gusting 6 -2.8
2019-Dec-12 14:31 086 0 gusting 6 -3.3
2019-Dec-12 14:16 016 0 gusting 4 -3.3
2019-Dec-12 14:00 338 3 gusting 6 -3.9
2019-Dec-12 13:46 026 2 gusting 6 -3.9
2019-Dec-12 13:30 084 0 gusting 4 -4.4
2019-Dec-12 13:15 352 1 gusting 5 -5.0
2019-Dec-12 13:01 100 -5.6
2019-Dec-12 12:45 347 -6.1
2019-Dec-12 12:30 030 -6.1
2019-Dec-12 12:15 329 -6.1
2019-Dec-12 12:02 004 0 gusting 2 -6.1
2019-Dec-12 11:47 015 0 gusting 3 -5.6
2019-Dec-12 11:32 057 -5.6
2019-Dec-12 11:17 037 -5.6
2019-Dec-12 11:01 037 0 gusting 4 -5.6
2019-Dec-12 10:46 030 0 gusting 3 -5.0
2019-Dec-12 10:31 018 0 gusting 3 -5.0
2019-Dec-12 10:17 053 0 gusting 6 -5.0
2019-Dec-12 10:01 026 1 gusting 4 -5.0
2019-Dec-12 09:46 007 0 gusting 4 -4.4
2019-Dec-12 09:31 018 -4.4
2019-Dec-12 09:15 037 3 gusting 5 -4.4
2019-Dec-12 09:02 356 3 gusting 6 -4.4
2019-Dec-12 08:45 050 1 gusting 6 -4.4
2019-Dec-12 08:30 354 2 gusting 6 -3.9
2019-Dec-12 08:15 041 1 gusting 6 -3.9
2019-Dec-12 08:00 013 1 gusting 5 -3.9
2019-Dec-12 07:45 018 1 gusting 6 -3.3
2019-Dec-12 07:30 323 5 gusting 9 -3.3
2019-Dec-12 07:02 061 2 gusting 9 -2.8
2019-Dec-12 06:47 326 1 gusting 7 -2.8
2019-Dec-12 06:32 091 6 gusting 14 -2.8
2019-Dec-12 06:16 088 5 gusting 14 -2.8
2019-Dec-12 06:01 031 5 gusting 11 -2.8
2019-Dec-12 05:47 077 1 gusting 6 -2.2
2019-Dec-12 05:31 053 2 gusting 9 -2.8
2019-Dec-12 05:16 019 1 gusting 6 -3.3
2019-Dec-12 05:01 082 -3.3
2019-Dec-12 04:45 054 -3.3
2019-Dec-12 04:30 347 2 gusting 6 -3.3
2019-Dec-12 04:16 068 -2.8
2019-Dec-12 04:00 253 -2.8
2019-Dec-12 03:45 352 1 gusting 5 -2.8
2019-Dec-12 03:30 032 0 gusting 3 -2.8
2019-Dec-12 03:15 030 -2.8
2019-Dec-12 03:00 339 0 gusting 5 -2.8
2019-Dec-12 02:45 032 1 gusting 3 -2.8
2019-Dec-12 02:33 350 0 gusting 3 -2.8
2019-Dec-12 02:18 323 -2.2
2019-Dec-12 02:02 045 0 gusting 5 -2.2
2019-Dec-12 01:47 288 -2.2
2019-Dec-12 01:31 308 -2.2
2019-Dec-12 01:16 016 -2.2
2019-Dec-12 01:02 229 -2.2
2019-Dec-12 00:46 319 -2.2
2019-Dec-12 00:30 034 -2.2
2019-Dec-12 00:16 338 -2.2
2019-Dec-12 00:02 303 -2.2
2019-Dec-11 23:47 063 -1.7
2019-Dec-11 23:31 047 -1.7
2019-Dec-11 23:16 303 -1.7
2019-Dec-11 23:01 009 -1.7
2019-Dec-11 22:46 313 -1.7
2019-Dec-11 22:30 290 -1.7
2019-Dec-11 22:16 016 -1.1
2019-Dec-11 22:00 283 -1.1
2019-Dec-11 21:46 008 -1.1
2019-Dec-11 21:31 016 -1.1
2019-Dec-11 21:16 015 -0.6
2019-Dec-11 21:00 026 0 gusting 4 -0.6
2019-Dec-11 20:45 041 1 gusting 4 -0.0
2019-Dec-11 20:31 091 0 gusting 4 0.6
2019-Dec-11 20:16 005 0.6
2019-Dec-11 20:01 323 1 gusting 3 1.7
2019-Dec-11 19:46 006 1 gusting 6 1.1
2019-Dec-11 19:30 072 1 gusting 6 1.7
2019-Dec-11 19:15 359 2 gusting 5 1.7
2019-Dec-11 19:00 016 0 gusting 4 1.1
2019-Dec-11 18:45 039 1 gusting 4 0.6
2019-Dec-11 18:30 075 0.6
2019-Dec-11 18:15 323 0.6
2019-Dec-11 18:01 349 0 gusting 5 1.1
2019-Dec-11 17:46 322 0.6
2019-Dec-11 17:30 345 1 gusting 4 1.1
2019-Dec-11 17:16 015 1 gusting 4 0.6
2019-Dec-11 17:00 006 0 gusting 3 -0.0
2019-Dec-11 16:45 027 -0.6
2019-Dec-11 16:31 074 -0.6
2019-Dec-11 16:15 001 1 gusting 3 -1.1
2019-Dec-11 16:00 290 -1.1
2019-Dec-11 15:45 356 -1.1
2019-Dec-11 15:30 345 1 gusting 3 -1.1
2019-Dec-11 15:15 056 -1.1
2019-Dec-11 15:00 021 -1.1
2019-Dec-11 14:45 307 -1.1
2019-Dec-11 14:30 360 -1.1
2019-Dec-11 14:15 016 -1.1
2019-Dec-11 14:00 018 -1.1